カタログに戻る

MARAFON-D GVM

運用中通信PO
NORAD 59072·PAYLOAD·🇷🇺 Russia
この衛星名は、まだ公式ソースで確認されていません。

打ち上げ Feb 29, 2024 から Vostochny Cosmodrome

Loading…

次のパス (今後24時間)

TLE

最新Source: Space-Track

元期: Sep 14, 2026, 13:39 UTC

1 59072U 24039V   26257.56935833  .00000167  00000-0  42472-4 0  9992
2 59072  88.9758 273.0706 0018071  40.5896 319.6652 14.46041172134105

AllMySatでMARAFON-D GVMをリアルタイム追跡

Download on the App Store